Wind_Speed
5 5 5 5 6 5 7 7 7 4 2 5 7 8 8 8 7 7 7 9 10 11 13 14 16 18 20 22 23 25 27 28 30 33 35 38 40 42 44 46 46 47 46 45 44 42 41 40 39
11 10 8 8 8 7 7 7 8 5 2 2 4 6 7 8 9 9 9 10 11 13 15 16 18 20 21 23 24 26 27 29 31 32 34 35 37 39 41 43 45 47 48 49 48 47 46 45 44
13 14 12 11 11 11 10 9 9 7 5 4 4 6 7 9 10 10 11 12 13 15 17 19 21 23 25 26 28 29 31 32 34 35 36 37 38 39 40 42 43 45 47 49 50 50 50 50 48
15 15 12 12 12 11 11 11 10 8 6 5 6 7 8 9 10 11 13 15 17 19 21 23 26 28 30 32 34 35 37 38 39 40 41 42 43 44 44 45 45 46 46 48 49 51 52 52 52
15 13 12 12 11 11 11 11 10 8 8 8 8 8 9 10 12 14 16 18 21 24 26 29 31 33 36 38 40 42 43 45 47 48 48 49 50 50 50 50 51 51 50 50 50 51 52 53 54
13 11 13 13 12 13 13 12 11 10 10 9 8 9 10 12 15 18 21 24 26 29 32 34 37 40 42 44 47 49 51 53 55 56 57 58 58 58 58 57 57 57 56 56 54 53 53 54 55
13 14 16 15 15 15 14 13 11 10 9 9 10 11 13 16 19 22 25 28 31 34 37 39 42 45 48 51 54 57 59 61 63 64 65 66 66 66 66 65 64 63 63 62 60 59 58 57 57
17 18 17 16 15 14 13 11 10 9 8 10 12 14 17 20 23 27 30 33 36 39 42 45 48 51 54 58 61 63 66 69 71 72 73 74 74 73 73 72 71 70 68 67 66 65 64 62 61
17 17 15 14 12 12 11 9 9 9 10 12 16 19 22 25 28 31 34 37 41 44 47 50 54 57 60 64 67 69 72 74 76 78 79 80 80 79 78 77 76 75 74 72 70 69 68 67 66
13 12 11 10 9 9 8 9 10 12 13 16 20 23 26 29 32 35 38 41 45 48 52 55 58 62 65 68 71 73 76 78 80 81 82 83 84 84 83 82 81 79 78 76 75 73 72 71 70
9 8 7 6 6 7 8 10 12 14 16 20 23 26 29 32 35 38 42 45 49 52 56 60 63 67 70 72 75 77 80 82 83 85 86 87 87 87 87 87 85 84 82 80 79 77 76 75 74
5 4 4 5 7 8 11 13 15 17 19 22 25 29 32 35 38 42 45 49 53 57 60 64 67 71 74 77 79 81 83 85 86 88 89 91 91 91 91 91 90 89 87 85 83 82 80 79 78
4 5 6 8 10 12 15 17 19 20 23 25 28 30 33 37 41 44 48 52 56 60 64 67 71 74 77 79 82 84 87 89 92 93 94 94 94 94 92 91 90 89 89 87 86 85 83 82 81
8 9 11 12 13 15 18 21 22 23 25 27 29 32 35 39 43 47 51 55 59 63 67 71 74 77 79 82 85 89 92 94 94 93 91 88 86 85 84 83 82 82 82 83 83 83 82 82 82
11 13 15 15 16 17 19 22 24 26 27 28 30 33 37 41 46 50 54 59 63 67 71 74 77 79 83 86 90 93 94 92 89 84 81 77 75 73 72 72 72 72 73 74 75 77 78 78 80
14 16 18 18 19 20 20 22 25 26 27 29 32 36 40 44 49 53 58 62 67 71 74 77 79 83 86 89 91 92 89 85 80 76 73 71 69 68 67 67 66 66 66 67 69 71 72 74 77
15 16 18 19 19 19 21 22 25 27 29 32 36 39 43 47 52 56 61 66 71 74 77 80 82 85 88 89 89 86 81 77 74 73 71 70 69 68 67 66 64 63 63 62 64 66 69 71 74
14 14 15 17 17 19 20 23 26 29 32 35 38 42 46 50 55 60 65 70 74 77 80 82 85 86 88 87 83 78 74 72 72 71 71 69 67 66 64 63 61 60 60 60 60 63 66 68 71
15 14 15 17 19 20 21 24 27 31 34 37 40 44 49 54 59 64 69 73 77 79 81 84 85 86 86 83 78 74 71 71 71 70 68 66 63 60 58 57 56 55 55 56 58 59 63 66 69
16 16 17 18 19 20 21 23 27 31 34 38 43 47 53 57 62 68 72 76 78 80 82 84 86 86 83 79 76 73 72 71 69 66 63 59 56 54 52 50 49 49 49 51 53 56 58 63 67
17 17 18 18 19 22 23 22 28 31 36 41 46 51 56 60 66 71 74 77 79 81 83 84 85 83 79 76 74 72 71 68 63 58 54 53 51 50 48 47 46 44 44 45 47 50 54 58 63
17 17 18 19 20 24 26 26 30 35 40 45 49 54 58 63 68 72 75 77 79 81 83 84 84 80 77 75 74 73 69 63 58 53 51 51 52 51 50 48 46 44 42 41 42 44 48 53 58
18 18 19 21 22 24 26 29 33 38 43 48 52 56 60 65 70 72 74 77 79 81 83 83 81 77 75 75 74 71 66 59 54 51 52 53 54 54 53 51 49 46 44 42 41 40 42 47 53
20 21 21 22 23 24 28 32 36 41 45 49 53 57 61 66 70 72 74 77 79 81 82 81 77 75 75 75 72 68 62 56 53 53 54 54 55 55 55 53 51 48 46 43 41 40 40 42 47
22 23 24 25 26 28 31 34 38 42 47 51 55 58 62 66 69 72 75 77 79 81 81 78 75 74 74 73 70 64 59 55 55 57 58 58 58 57 56 55 52 50 47 44 42 40 39 39 43
24 25 27 29 30 30 32 36 40 44 48 52 56 59 63 67 70 73 75 77 79 80 79 76 73 73 73 71 67 61 58 57 59 61 62 63 62 61 59 57 54 51 47 44 42 40 38 37 39
27 27 28 30 32 34 36 39 42 46 50 53 56 60 64 68 71 73 75 77 79 79 77 74 72 72 72 69 64 60 58 60 62 64 66 66 66 65 63 60 55 51 47 45 42 39 37 36 36
28 29 31 32 36 40 40 41 44 47 50 54 57 61 65 69 71 73 75 77 78 77 74 72 72 72 70 67 63 60 60 62 65 67 69 70 70 69 64 58 51 46 44 43 40 37 35 33 33
30 31 32 34 36 40 43 42 44 47 50 54 58 62 66 69 71 73 75 77 77 75 72 70 70 70 68 66 62 61 62 64 67 69 72 73 72 68 60 50 41 36 35 36 36 34 32 31 30
30 32 33 35 38 40 42 43 45 47 50 54 58 62 66 69 71 73 74 75 74 72 70 69 69 69 67 65 62 61 63 66 68 71 74 75 72 63 52 41 30 21 19 24 28 30 28 27 27
Wind_Direction
57 70 97 112 124 139 155 159 156 178 266 315 330 340 351 355 350 344 330 326 320 314 309 304 300 298 295 293 292 290 288 285 282 279 277 274 272 270 269 267 264 261 258 255 253 252 251 251 250
80 87 97 104 120 129 139 141 144 155 165 342 346 351 357 358 1 356 344 336 327 322 318 315 313 311 309 307 304 302 300 297 294 291 287 283 279 276 273 270 268 265 262 259 255 253 251 250 249
89 89 93 107 110 111 111 105 100 102 91 58 25 10 4 1 359 352 348 343 338 333 329 325 322 319 316 313 310 308 305 302 300 297 294 291 288 284 280 276 272 269 265 262 259 255 252 250 249
86 87 92 98 95 96 95 91 88 88 79 59 36 22 14 10 3 356 350 344 338 332 327 323 319 316 313 310 308 305 303 301 298 296 294 292 290 287 285 281 278 274 270 266 263 259 255 252 249
80 86 88 85 85 84 84 85 83 79 70 56 42 31 21 9 358 349 342 336 331 326 322 318 315 312 309 306 304 302 300 298 296 295 293 291 288 286 284 281 279 276 274 270 267 263 259 255 252
78 81 81 79 80 82 81 79 75 69 63 55 40 22 8 355 345 338 333 329 325 321 318 315 312 309 307 305 303 301 299 297 296 294 292 290 288 286 283 280 278 276 273 271 269 266 263 259 255
84 81 80 80 81 81 80 76 72 62 50 33 16 1 350 340 334 330 326 323 320 317 314 312 310 308 307 305 303 301 300 298 296 294 292 290 288 286 284 281 278 275 272 270 268 265 263 261 258
89 85 82 79 76 74 70 66 57 45 26 8 354 343 335 331 328 324 321 319 317 315 314 312 310 308 306 305 303 301 300 298 296 295 293 291 289 286 284 281 278 275 271 268 266 263 261 260 257
84 84 81 77 72 64 55 46 32 16 359 347 339 333 329 326 323 321 318 317 315 314 313 311 310 308 307 305 303 301 300 298 296 294 292 290 288 286 283 280 277 274 271 268 264 261 259 257 255
86 86 79 70 59 46 30 14 1 351 341 335 331 327 325 322 320 318 317 316 315 314 312 311 309 307 306 304 303 301 299 297 296 294 291 289 287 285 282 279 276 273 270 267 263 260 257 254 252
89 80 62 47 28 11 355 345 339 334 329 328 326 323 321 319 318 317 316 315 314 313 311 310 309 307 306 304 303 301 299 297 295 293 291 289 286 284 281 278 275 272 269 266 263 259 256 252 250
74 52 24 360 346 336 329 326 324 323 323 322 320 319 318 317 316 317 316 315 314 313 312 312 311 309 307 306 304 302 300 298 296 294 291 288 285 283 280 277 275 272 269 265 262 258 255 252 248
357 342 333 329 325 320 318 317 317 318 318 318 318 318 317 317 316 316 315 314 314 315 315 314 312 311 309 308 306 305 303 301 298 296 293 290 288 285 283 280 277 274 270 267 263 259 255 251 247
325 320 317 316 315 313 312 312 313 316 316 317 317 317 317 316 315 315 316 317 317 317 316 315 314 313 312 310 309 308 305 303 301 299 297 295 292 289 285 282 278 275 271 267 264 259 255 251 247
316 313 311 312 311 310 309 308 312 314 314 315 316 316 316 316 317 318 319 319 319 319 319 318 317 316 315 314 312 310 308 306 305 303 301 298 295 291 287 283 279 275 270 265 261 257 253 249 246
313 310 310 313 311 310 310 308 310 311 314 316 318 318 318 319 319 319 321 322 322 322 322 321 320 319 318 316 314 312 311 310 308 306 304 301 298 295 291 287 282 277 271 265 260 255 251 247 243
316 313 308 305 304 306 310 312 313 315 319 320 321 321 321 321 321 322 324 325 325 325 325 324 322 320 319 317 316 315 314 313 311 309 306 304 301 298 294 290 285 280 274 268 261 254 249 245 241
314 304 299 302 310 316 318 320 319 320 322 323 323 323 323 323 325 327 328 327 328 328 327 325 323 322 320 319 318 317 316 314 312 310 308 306 303 300 297 292 287 282 276 270 263 255 249 244 240
323 323 324 325 326 324 324 325 322 322 323 324 326 327 328 328 329 329 330 330 331 329 327 325 324 322 321 320 319 318 317 315 313 312 310 309 307 304 301 297 291 285 279 272 265 258 250 244 239
333 335 333 329 325 324 328 328 321 322 324 328 330 332 332 331 331 332 333 333 331 329 327 326 325 324 323 322 321 321 320 318 317 316 315 314 312 310 307 302 297 290 283 275 268 261 253 245 240
338 336 332 330 329 329 332 329 323 326 330 333 335 335 334 333 334 334 335 333 331 329 328 327 326 325 325 324 323 323 322 321 319 319 318 317 315 314 311 307 302 295 288 279 272 264 256 248 241
337 336 334 335 336 334 332 332 331 334 335 336 337 336 336 335 336 336 335 333 331 330 329 328 328 327 326 326 325 325 324 323 322 322 321 319 317 315 312 309 305 299 292 284 277 269 260 250 242
340 341 340 340 339 334 333 336 337 337 338 338 338 338 338 337 337 336 335 334 332 331 331 330 330 329 328 328 328 328 327 326 326 325 323 321 317 314 311 308 304 298 292 286 280 272 264 254 244
344 343 342 340 340 338 341 339 338 340 339 339 339 339 339 339 338 337 336 335 333 333 332 332 331 330 330 330 330 330 329 328 327 325 323 320 317 313 309 305 301 296 291 285 280 274 267 257 247
345 343 342 341 345 344 342 340 339 339 340 341 340 340 340 339 338 338 337 335 335 334 334 333 333 332 332 332 332 331 331 330 328 326 324 321 317 312 307 303 298 294 288 283 277 272 267 260 250
347 345 343 341 340 341 341 342 340 340 342 341 340 340 340 340 340 339 338 337 337 336 335 335 335 334 334 335 334 333 332 331 330 329 327 323 319 315 309 303 296 290 284 279 273 269 265 260 252
347 345 343 338 336 338 343 342 340 342 342 340 340 341 342 342 341 340 339 339 338 337 337 336 337 337 337 337 336 336 335 334 333 332 330 327 322 318 312 304 296 287 279 274 270 265 262 258 251
346 344 341 339 338 338 340 342 341 341 340 339 341 342 343 343 342 341 341 340 339 338 338 339 339 339 340 339 339 338 338 337 337 336 333 331 327 322 315 308 298 286 275 269 265 261 257 254 249
346 343 341 339 338 336 337 342 339 340 339 340 342 344 344 343 343 342 342 341 340 340 340 340 341 341 342 342 341 341 341 341 341 340 338 336 332 328 323 317 307 290 272 262 258 255 252 248 245
350 346 343 341 339 337 336 339 339 339 339 341 344 344 345 344 344 343 343 342 341 341 342 342 343 344 345 345 345 344 345 345 345 344 344 342 340 337 335 332 326 311 278 256 250 248 246 243 240
Height
5875 5875 5876 5878 5878 5877 5876 5876 5875 5875 5875 5875 5874 5874 5875 5875 5876 5878 5875 5872 5871 5869 5868 5866 5865 5863 5861 5860 5858 5856 5854 5853 5851 5849 5848 5846 5845 5844 5843 5842 5842 5842 5842 5842 5842 5843 5843 5843 5844
5875 5876 5878 5878 5877 5876 5877 5876 5875 5877 5877 5876 5875 5876 5875 5875 5875 5874 5872 5871 5870 5868 5867 5865 5863 5861 5859 5857 5855 5853 5850 5848 5846 5844 5842 5840 5838 5837 5835 5834 5833 5832 5832 5832 5833 5834 5834 5835 5836
5877 5878 5879 5878 5877 5878 5878 5877 5877 5878 5878 5878 5877 5877 5876 5875 5874 5873 5871 5870 5868 5866 5864 5862 5860 5857 5855 5853 5850 5848 5845 5843 5840 5838 5835 5833 5831 5829 5827 5825 5824 5823 5822 5822 5822 5823 5824 5825 5826
5880 5881 5881 5880 5879 5880 5879 5879 5879 5879 5879 5879 5878 5877 5876 5875 5874 5872 5870 5868 5866 5864 5861 5859 5856 5853 5850 5847 5844 5841 5839 5836 5833 5831 5828 5825 5822 5820 5818 5816 5814 5813 5812 5811 5811 5812 5812 5814 5815
5882 5883 5882 5881 5881 5881 5880 5880 5880 5880 5879 5878 5878 5877 5876 5874 5872 5870 5868 5866 5863 5860 5857 5854 5851 5847 5844 5841 5837 5834 5831 5827 5824 5821 5818 5815 5812 5809 5807 5805 5803 5802 5801 5800 5800 5800 5800 5801 5803
5884 5884 5884 5883 5883 5882 5881 5881 5881 5880 5879 5879 5879 5878 5875 5873 5871 5868 5865 5862 5859 5856 5852 5849 5844 5840 5836 5832 5828 5824 5820 5816 5812 5809 5805 5802 5799 5796 5794 5792 5790 5789 5788 5787 5787 5788 5788 5789 5790
5887 5886 5884 5885 5884 5884 5884 5883 5882 5881 5880 5879 5878 5876 5874 5871 5868 5865 5861 5858 5854 5850 5846 5842 5837 5832 5827 5822 5817 5812 5807 5802 5798 5794 5790 5786 5783 5780 5777 5775 5773 5773 5772 5772 5772 5773 5774 5775 5776
5888 5888 5886 5886 5886 5885 5884 5884 5882 5881 5880 5879 5877 5874 5872 5869 5865 5861 5857 5853 5849 5844 5839 5834 5829 5823 5817 5811 5805 5799 5793 5787 5782 5777 5772 5768 5764 5761 5758 5755 5753 5753 5753 5754 5755 5756 5757 5759 5761
5889 5890 5888 5887 5887 5886 5884 5883 5882 5880 5879 5877 5874 5872 5869 5865 5861 5857 5852 5847 5842 5837 5831 5826 5820 5813 5807 5800 5793 5786 5778 5771 5765 5759 5753 5748 5743 5739 5736 5733 5731 5730 5731 5732 5734 5736 5738 5741 5744
5891 5890 5889 5888 5887 5885 5884 5882 5881 5879 5877 5874 5872 5868 5864 5860 5856 5851 5846 5841 5835 5829 5823 5817 5810 5803 5796 5788 5780 5771 5763 5755 5747 5740 5733 5727 5721 5716 5712 5709 5706 5706 5706 5708 5710 5713 5716 5720 5724
5892 5890 5889 5888 5886 5884 5883 5881 5879 5877 5874 5872 5868 5864 5860 5855 5850 5845 5840 5834 5828 5822 5815 5808 5799 5791 5782 5773 5764 5755 5745 5736 5727 5718 5710 5704 5697 5691 5687 5683 5680 5680 5681 5682 5684 5687 5692 5697 5701
5892 5890 5889 5887 5885 5883 5881 5879 5877 5874 5872 5869 5865 5860 5855 5850 5844 5839 5833 5827 5820 5813 5805 5796 5787 5777 5766 5755 5745 5734 5724 5714 5704 5694 5686 5678 5670 5663 5659 5654 5652 5651 5652 5654 5657 5660 5665 5671 5677
5892 5890 5888 5887 5884 5882 5879 5877 5874 5871 5868 5865 5861 5856 5850 5844 5839 5833 5827 5819 5811 5803 5793 5783 5772 5761 5750 5738 5725 5713 5701 5689 5677 5667 5657 5648 5640 5633 5628 5623 5621 5620 5621 5623 5627 5631 5637 5643 5650
5891 5889 5887 5885 5882 5879 5876 5873 5871 5868 5864 5860 5856 5851 5846 5840 5833 5826 5819 5810 5801 5792 5781 5770 5757 5744 5731 5717 5704 5690 5677 5663 5650 5637 5627 5617 5610 5603 5598 5593 5590 5589 5590 5592 5595 5600 5607 5614 5622
5889 5887 5885 5883 5880 5877 5874 5870 5867 5864 5860 5857 5852 5847 5841 5834 5826 5818 5809 5800 5790 5779 5768 5755 5741 5727 5712 5697 5682 5666 5651 5637 5624 5612 5602 5592 5584 5578 5572 5567 5564 5562 5562 5563 5565 5570 5576 5584 5593
5887 5885 5882 5880 5877 5874 5873 5869 5864 5860 5857 5852 5847 5841 5834 5827 5818 5809 5800 5789 5778 5766 5753 5738 5724 5709 5693 5677 5660 5643 5628 5614 5601 5590 5580 5571 5562 5555 5549 5544 5541 5538 5536 5537 5539 5542 5548 5555 5564
5885 5882 5879 5877 5875 5872 5869 5865 5860 5855 5851 5846 5841 5834 5827 5819 5810 5800 5789 5778 5765 5751 5737 5722 5707 5692 5676 5658 5640 5623 5608 5594 5582 5571 5560 5551 5542 5534 5528 5522 5518 5515 5513 5512 5514 5517 5522 5529 5536
5884 5881 5878 5875 5872 5868 5864 5860 5855 5850 5846 5841 5835 5828 5820 5811 5800 5789 5778 5765 5751 5736 5721 5706 5691 5675 5659 5641 5625 5608 5593 5579 5566 5554 5542 5532 5523 5515 5507 5501 5497 5493 5491 5490 5490 5493 5498 5504 5511
5880 5877 5874 5870 5867 5864 5860 5856 5851 5846 5841 5835 5829 5821 5811 5801 5790 5778 5766 5752 5736 5721 5706 5691 5676 5659 5642 5626 5611 5597 5582 5568 5553 5539 5526 5515 5505 5497 5489 5482 5477 5473 5470 5469 5469 5470 5475 5481 5488
5876 5873 5870 5867 5864 5861 5858 5853 5848 5842 5837 5830 5822 5812 5802 5791 5780 5768 5754 5738 5724 5709 5693 5677 5660 5642 5625 5609 5594 5580 5565 5551 5537 5523 5510 5499 5490 5482 5474 5467 5461 5456 5452 5450 5449 5450 5453 5459 5465
5873 5871 5868 5865 5862 5857 5855 5851 5844 5838 5831 5823 5814 5804 5793 5782 5770 5756 5742 5727 5712 5696 5679 5662 5644 5626 5610 5594 5580 5566 5552 5537 5524 5512 5500 5488 5479 5470 5462 5454 5448 5442 5437 5434 5432 5431 5433 5439 5444
5872 5869 5866 5862 5859 5854 5851 5847 5840 5833 5824 5816 5806 5796 5785 5773 5760 5746 5732 5716 5700 5683 5665 5647 5629 5612 5596 5580 5566 5551 5537 5524 5512 5500 5489 5478 5467 5458 5450 5442 5435 5429 5424 5420 5417 5416 5416 5419 5425
5870 5866 5863 5859 5855 5851 5846 5841 5836 5827 5818 5809 5799 5788 5777 5764 5751 5737 5722 5706 5688 5670 5652 5634 5616 5599 5583 5567 5552 5537 5523 5510 5499 5489 5478 5467 5456 5445 5436 5429 5421 5415 5410 5406 5403 5401 5400 5402 5406
5867 5864 5860 5857 5853 5848 5842 5835 5829 5821 5813 5803 5792 5781 5769 5756 5742 5727 5711 5694 5677 5659 5641 5622 5605 5588 5572 5556 5540 5525 5512 5500 5489 5479 5468 5456 5445 5433 5422 5413 5406 5399 5395 5391 5388 5386 5386 5386 5389
5865 5862 5858 5853 5848 5844 5837 5830 5824 5816 5806 5796 5785 5774 5762 5749 5734 5718 5702 5685 5667 5649 5631 5613 5595 5579 5562 5545 5529 5514 5501 5489 5478 5466 5455 5442 5430 5418 5407 5396 5388 5382 5377 5374 5372 5371 5371 5372 5374
5863 5859 5854 5848 5843 5840 5833 5825 5819 5809 5799 5789 5778 5767 5755 5741 5725 5710 5693 5676 5658 5639 5621 5603 5587 5570 5553 5536 5520 5505 5492 5479 5467 5453 5439 5425 5411 5399 5386 5376 5368 5362 5358 5356 5355 5356 5356 5357 5359
5860 5856 5851 5845 5839 5833 5827 5820 5811 5802 5793 5783 5773 5761 5747 5732 5717 5701 5684 5666 5648 5630 5612 5595 5578 5561 5544 5527 5512 5497 5484 5470 5456 5441 5425 5408 5392 5376 5363 5351 5343 5338 5336 5336 5337 5339 5341 5343 5346
5858 5852 5847 5841 5833 5826 5821 5815 5806 5797 5788 5778 5766 5754 5739 5725 5709 5692 5675 5658 5640 5622 5604 5586 5570 5553 5536 5519 5503 5489 5475 5461 5445 5429 5411 5392 5373 5354 5337 5324 5316 5312 5312 5315 5319 5323 5327 5330 5334
5856 5850 5844 5837 5830 5822 5815 5812 5802 5793 5782 5772 5760 5746 5732 5717 5701 5685 5668 5650 5632 5614 5596 5580 5564 5547 5530 5514 5498 5483 5468 5453 5436 5418 5398 5377 5355 5333 5314 5301 5293 5289 5291 5296 5302 5308 5313 5318 5322
5853 5847 5841 5835 5827 5818 5810 5807 5796 5787 5777 5765 5753 5739 5725 5710 5694 5678 5661 5643 5626 5608 5592 5575 5559 5542 5525 5509 5493 5477 5462 5446 5428 5409 5387 5364 5340 5317 5299 5286 5278 5275 5276 5282 5289 5295 5302 5308 5313